| time (UTC) | temp F | wind direction | speed knots | gust knots | rain 1hr in | rain 24hr in | rain mn in | humidity % | barometer mb |
| 20260508144523 | 50 | 242 | 11.3 | 18.2 | 0.00 | 0.02 | 0.00 | 71 | 1002.4 |
| 20260508143010 | 50 | 240 | 13.0 | 23.5 | 0.00 | 0.02 | 0.00 | 71 | 1002.3 |
| 20260508141512 | 50 | 260 | 9.6 | 20.0 | 0.00 | 0.02 | 0.00 | 72 | 1002.2 |
| 20260508140019 | 50 | 259 | 7.8 | 21.7 | 0.00 | 0.02 | 0.00 | 72 | 1002.3 |
| 20260508134507 | 49 | 256 | 16.5 | 26.1 | 0.00 | 0.02 | 0.00 | 73 | 1002.4 |
| 20260508133143 | 49 | 253 | 9.6 | 19.1 | 0.00 | 0.02 | 0.00 | 75 | 1002.3 |
| 20260508131503 | 48 | 246 | 7.8 | 16.5 | 0.00 | 0.02 | 0.00 | 76 | 1002.3 |
| 20260508130002 | 48 | 278 | 8.7 | 16.5 | 0.00 | 0.02 | 0.00 | 77 | 1002.2 |
| 20260508124559 | 48 | 249 | 7.8 | 19.1 | 0.00 | 0.02 | 0.00 | 78 | 1002.1 |
| 20260508123115 | 48 | 280 | 7.8 | 19.1 | 0.00 | 0.02 | 0.00 | 78 | 1001.9 |
| 20260508121606 | 47 | 242 | 7.0 | 24.3 | 0.00 | 0.02 | 0.00 | 79 | 1001.5 |
| 20260508120107 | 47 | 238 | 10.4 | 20.0 | 0.00 | 0.02 | 0.00 | 81 | 1001.4 |
| 20260508114559 | 47 | 287 | 7.8 | 19.1 | 0.00 | 0.02 | 0.00 | 82 | 1001.3 |
| 20260508113056 | 46 | 254 | 7.8 | 19.1 | 0.00 | 0.02 | 0.00 | 84 | 1001.1 |
| 20260508111550 | 46 | 244 | 6.1 | 21.7 | 0.00 | 0.02 | 0.00 | 85 | 1001.0 |
| 20260508110044 | 46 | 257 | 7.8 | 18.2 | 0.00 | 0.02 | 0.00 | 86 | 1000.9 |
| 20260508104545 | 46 | 263 | 8.7 | 20.0 | 0.00 | 0.02 | 0.00 | 87 | 1000.7 |
| 20260508103054 | 46 | 267 | 6.1 | 20.0 | 0.00 | 0.02 | 0.00 | 88 | 1000.6 |
| 20260508101544 | 46 | 241 | 10.4 | 19.1 | 0.00 | 0.02 | 0.00 | 88 | 1000.4 |
| 20260508100036 | 46 | 272 | 6.1 | 15.6 | 0.00 | 0.02 | 0.00 | 89 | 1000.1 |
| 20260508094535 | 46 | 264 | 7.0 | 18.2 | 0.00 | 0.02 | 0.00 | 90 | 999.8 |
| 20260508093039 | 46 | 235 | 6.1 | 15.6 | 0.00 | 0.02 | 0.00 | 91 | 999.6 |
| 20260508091535 | 46 | 253 | 4.3 | 20.0 | 0.00 | 0.02 | 0.00 | 89 | 999.5 |
| 20260508090030 | 47 | 309 | 8.7 | 22.6 | 0.00 | 0.02 | 0.00 | 85 | 999.5 |
| 20260508084528 | 47 | 254 | 8.7 | 26.9 | 0.00 | 0.02 | 0.00 | 83 | 999.3 |
| 20260508083032 | 47 | 223 | 9.6 | 20.9 | 0.00 | 0.02 | 0.00 | 82 | 999.4 |
| 20260508081526 | 47 | 264 | 11.3 | 21.7 | 0.00 | 0.02 | 0.00 | 81 | 999.4 |
| 20260508080025 | 47 | 282 | 9.6 | 15.6 | 0.00 | 0.02 | 0.00 | 82 | 999.4 |
| 20260508074525 | 47 | 253 | 7.0 | 15.6 | 0.00 | 0.04 | 0.00 | 84 | 999.3 |
| 20260508073026 | 47 | 266 | 10.4 | 24.3 | 0.00 | 0.04 | 0.00 | 86 | 999.5 |
| 20260508071520 | 47 | 257 | 9.6 | 20.0 | 0.00 | 0.04 | 0.00 | 86 | 999.6 |
| 20260508070020 | 47 | 236 | 10.4 | 18.2 | 0.00 | 0.04 | 0.00 | 87 | 999.8 |
| 20260508064523 | 47 | 250 | 11.3 | 19.1 | 0.00 | 0.14 | 0.00 | 88 | 1000.0 |
| 20260508063016 | 48 | 249 | 14.8 | 25.2 | 0.00 | 0.14 | 0.00 | 85 | 999.9 |
| 20260508061513 | 49 | 254 | 14.8 | 20.9 | 0.00 | 0.14 | 0.00 | 81 | 999.9 |
| 20260508060011 | 49 | 246 | 6.1 | 16.5 | 0.00 | 0.14 | 0.00 | 82 | 1000.0 |
| 20260508054509 | 49 | 254 | 11.3 | 20.0 | 0.00 | 0.20 | 0.00 | 84 | 999.9 |
| 20260508053007 | 49 | 265 | 4.3 | 19.1 | 0.00 | 0.20 | 0.00 | 86 | 999.9 |
| 20260508051504 | 48 | 276 | 8.7 | 0.0 | 0.00 | 0.00 | 0.00 | 88 | 999.9 |
| 20260508050002 | 48 | 222 | 7.8 | 17.4 | 0.00 | 0.20 | 0.00 | 90 | 999.7 |
| 20260508044600 | 48 | 233 | 9.6 | 20.9 | 0.00 | 1.14 | 0.00 | 90 | 999.5 |
| 20260508043159 | 49 | 268 | 10.4 | 20.9 | 0.00 | 1.14 | 0.00 | 91 | 999.6 |
| 20260508041600 | 49 | 247 | 11.3 | 17.4 | 0.00 | 1.14 | 0.00 | 92 | 999.5 |
| 20260508040052 | 49 | 256 | 9.6 | 18.2 | 0.00 | 1.14 | 0.00 | 93 | 999.4 |
| 20260508034549 | 49 | 251 | 9.6 | 19.1 | 0.00 | 1.24 | 0.00 | 93 | 999.4 |
| 20260508033047 | 50 | 277 | 9.6 | 19.1 | 0.00 | 1.24 | 0.00 | 93 | 999.3 |
| 20260508031543 | 50 | 228 | 9.6 | 18.2 | 0.01 | 1.24 | 0.00 | 93 | 999.2 |
| 20260508030043 | 50 | 242 | 9.6 | 18.2 | 0.01 | 1.24 | 0.00 | 93 | 999.2 |
| 20260508024537 | 50 | 249 | 11.3 | 19.1 | 0.02 | 1.24 | 1.24 | 93 | 999.0 |
| 20260508023036 | 50 | 262 | 11.3 | 19.1 | 0.02 | 1.24 | 1.24 | 93 | 998.8 |
| 20260508021540 | 50 | 254 | 11.3 | 17.4 | 0.02 | 1.23 | 1.23 | 93 | 998.9 |
| 20260508020043 | 51 | 266 | 11.3 | 22.6 | 0.02 | 1.23 | 1.23 | 93 | 999.0 |
| 20260508014530 | 51 | 262 | 7.8 | 19.1 | 0.01 | 1.22 | 1.22 | 93 | 999.2 |
| 20260508013027 | 51 | 243 | 7.8 | 24.3 | 0.01 | 1.22 | 1.22 | 93 | 999.2 |
| 20260508011525 | 51 | 289 | 8.7 | 16.5 | 0.00 | 1.21 | 1.21 | 93 | 999.5 |
| 20260508010024 | 52 | 225 | 6.1 | 15.6 | 0.00 | 1.21 | 1.21 | 92 | 999.6 |
| 20260508004522 | 52 | 210 | 7.0 | 15.6 | 0.00 | 1.21 | 1.21 | 90 | 999.3 |
| 20260508003018 | 53 | 309 | 7.0 | 19.1 | 0.00 | 1.21 | 1.21 | 88 | 999.7 |
| 20260508001534 | 54 | 239 | 11.3 | 19.1 | 0.00 | 1.21 | 1.21 | 83 | 999.5 |
| 20260508000013 | 54 | 238 | 7.8 | 16.5 | 0.00 | 1.21 | 1.21 | 83 | 999.3 |
| 20260507234515 | 54 | 290 | 7.8 | 17.4 | 0.00 | 1.21 | 1.21 | 83 | 999.2 |
| 20260507233014 | 54 | 222 | 11.3 | 21.7 | 0.00 | 1.21 | 1.21 | 83 | 999.4 |
| 20260507231507 | 55 | 259 | 7.0 | 16.5 | 0.00 | 1.21 | 1.21 | 85 | 999.4 |
| 20260507230007 | 54 | 259 | 7.0 | 15.6 | 0.00 | 1.21 | 1.21 | 86 | 999.6 |
| 20260507224504 | 55 | 238 | 9.6 | 20.9 | 0.00 | 1.21 | 1.21 | 85 | 1000.0 |
| 20260507223100 | 55 | 261 | 10.4 | 18.2 | 0.00 | 1.21 | 1.21 | 84 | 999.7 |
| 20260507221558 | 55 | 212 | 8.7 | 15.6 | 0.00 | 1.21 | 1.21 | 84 | 999.5 |
| 20260507220055 | 56 | 347 | 7.8 | 15.6 | 0.00 | 1.21 | 1.21 | 81 | 999.3 |
| 20260507214559 | 56 | 237 | 7.8 | 15.6 | 0.00 | 1.21 | 1.21 | 79 | 999.0 |
| 20260507213053 | 56 | 297 | 3.5 | 10.4 | 0.00 | 1.21 | 1.21 | 79 | 999.0 |
| 20260507211551 | 56 | 265 | 6.1 | 15.6 | 0.00 | 1.21 | 1.21 | 78 | 999.3 |
| 20260507210052 | 57 | 282 | 7.8 | 20.0 | 0.00 | 1.21 | 1.21 | 76 | 999.1 |
| 20260507204553 | 57 | 265 | 6.1 | 19.1 | 0.00 | 1.21 | 1.21 | 76 | 999.3 |
| 20260507203049 | 58 | 233 | 7.8 | 16.5 | 0.00 | 1.21 | 1.21 | 75 | 999.2 |
| 20260507201552 | 58 | 250 | 6.1 | 13.9 | 0.00 | 1.21 | 1.21 | 74 | 998.9 |
| 20260507200043 | 58 | 244 | 8.7 | 19.1 | 0.00 | 1.21 | 1.21 | 74 | 997.9 |
| 20260507194541 | 58 | 249 | 7.8 | 17.4 | 0.00 | 1.21 | 1.21 | 74 | 997.3 |
| 20260507193039 | 58 | 237 | 7.8 | 14.8 | 0.00 | 1.21 | 1.21 | 75 | 997.6 |
| 20260507191538 | 58 | 269 | 7.8 | 15.6 | 0.00 | 1.21 | 1.21 | 75 | 997.6 |
| 20260507190037 | 58 | 243 | 7.0 | 14.8 | 0.00 | 1.21 | 1.21 | 75 | 998.7 |
| 20260507184536 | 59 | 234 | 4.3 | 15.6 | 0.00 | 1.21 | 1.21 | 76 | 999.2 |
| 20260507183037 | 59 | 271 | 6.1 | 17.4 | 0.00 | 1.21 | 1.21 | 76 | 999.2 |
| 20260507181534 | 59 | 276 | 7.0 | 15.6 | 0.00 | 1.21 | 1.21 | 76 | 1000.2 |
| 20260507180037 | 58 | 241 | 8.7 | 14.8 | 0.00 | 1.21 | 1.21 | 78 | 1000.8 |
| 20260507174541 | 58 | 294 | 5.2 | 14.8 | 0.00 | 1.21 | 1.21 | 78 | 1000.0 |
| 20260507173035 | 58 | 255 | 5.2 | 11.3 | 0.00 | 1.21 | 1.21 | 80 | 999.0 |
| 20260507171536 | 58 | 256 | 2.6 | 6.1 | 0.00 | 1.21 | 1.21 | 80 | 998.7 |
| 20260507170041 | 58 | 239 | 5.2 | 14.8 | 0.00 | 1.21 | 1.21 | 79 | 999.4 |
| 20260507164530 | 58 | 271 | 7.8 | 17.4 | 0.00 | 1.21 | 1.21 | 78 | 1000.4 |
| 20260507163025 | 58 | 261 | 7.8 | 20.9 | 0.00 | 1.21 | 1.21 | 79 | 1000.7 |
| 20260507161521 | 59 | 247 | 8.7 | 14.8 | 0.00 | 1.21 | 1.21 | 80 | 999.5 |
| 20260507160019 | 59 | 260 | 7.8 | 15.6 | 0.00 | 1.21 | 1.21 | 82 | 998.7 |
| 20260507154517 | 59 | 256 | 4.3 | 8.7 | 0.00 | 1.21 | 1.21 | 85 | 999.0 |
| 20260507153019 | 60 | 240 | 6.1 | 13.9 | 0.00 | 1.21 | 1.21 | 84 | 999.5 |
| 20260507151515 | 59 | 273 | 6.1 | 14.8 | 0.00 | 1.21 | 1.21 | 84 | 999.1 |
| 20260507150015 | 60 | 252 | 8.7 | 15.6 | 0.00 | 1.21 | 1.21 | 85 | 999.5 |